Preview of NWS' New Version of Forecast
This preview is not operational and should not be used for support decisions.
Latest weather observations around

New Bedford, New Bedford Regional Airport (KEWB)

Using English Units (Switch to International System of Units)
Date/ Time (EDT) Wind (mph) Vis. (mi) Weather Sky Cond. Temp (°F) Rel. Humidity Wind Chill (°F) Heat Index (°F) Pressure Precip. (in)
Air Dwpt 6 hour Altimeter (inHg) Sea level (inHg) 1 hr 3 hr 6 hr
Max Min
Aug 25 22:53 N 5 10 Cloudy OVC031 63 57     81%     30.25 30.25   0  
Aug 25 22:51 N 5 10 Cloudy OVC031 63 57     83%     30.25        
Aug 25 22:33 N 5 10 Cloudy FEW019 OVC029 63 57     81%     30.25        
Aug 25 22:12 7 10 Cloudy SCT018 OVC030 63 57     81%     30.25        
Aug 25 21:53 NNE 7 10 Cloudy BKN016 OVC022 62 57     84%     30.26 30.26 0    
Aug 25 21:36 NNE 8 10 Cloudy BKN016 OVC033 62 57     84%     30.26   0    
Aug 25 21:29 NNE 6 10 Cloudy SCT017 OVC033 62 57     84%     30.26   0    
Aug 25 21:22 N 7 10 Light Rain BKN015 OVC033 62 57     84%     30.26   0    
Aug 25 21:14 NNE 7 10 Cloudy SCT017 OVC035 62 56     80%     30.26        
Aug 25 20:53 NNE 6 10 Cloudy OVC017 63 56     78%     30.26 30.26 0    
Aug 25 20:31 NNE 6 10 Light Rain BKN017 BKN024 OVC033 62 56     80%     30.27   0    
Aug 25 19:53 N 6 10 Cloudy SCT019 OVC035 63 55     75%     30.26 30.26      
Aug 25 18:53 NNE 8 10 Cloudy SCT021 OVC033 63 55     75%     30.26 30.25      
Aug 25 18:14 NNE 10 10 Mostly Cloudy BKN024 BKN031 65 55     70%     30.26        
Aug 25 17:53 NNE 10 10 Mostly Clear FEW025 66 55     68%     30.26 30.26      
Aug 25 16:53 NNE 8 10 Cloudy OVC031 66 53     63%     30.26 30.26      
Aug 25 16:00 NNE 11 10 Mostly Clear FEW029 67 53     61%     30.27        
Aug 25 15:53 NNE 14 10 Mostly Cloudy BKN029 68 53     59%     30.27 30.27      
Aug 25 15:39 NE 15 10 Mostly Cloudy BKN029 68 54     61%     30.27        
Aug 25 14:53 NNE 14 10 Cloudy FEW027 BKN040 OVC055 69 56     63%     30.28 30.27      
Aug 25 13:53 NE 13 10 Cloudy SCT026 OVC050 68 56     65%     30.28 30.28     0
Aug 25 12:53 NNE 14 10 Cloudy OVC070 69 57     65%     30.28 30.28 0    
Aug 25 11:53   10 Cloudy FEW032 SCT046 OVC060 68 58     70%     30.29 30.29 0    
Aug 25 10:53 NNE 10 10 Light Rain FEW014 SCT020 OVC050 66 60     81%     30.28 30.28 0 0  
Aug 25 10:51 NNE 11 10 Light Rain FEW014 SCT020 OVC050 66 61     83%     30.28   0    
Aug 25 09:53 NNE 6 10 Cloudy SCT011 BKN021 OVC055 66 60     81%     30.28 30.28 0    
Aug 25 09:43 N 7 10 Cloudy SCT009 BKN020 OVC050 65 60     84%     30.28   0    
Aug 25 08:53 NNE 9 5 Light Rain FEW039 BKN048 OVC060 65 60     84%     30.27 30.27 0    
Aug 25 07:53 N 6 10 Clear CLR 64 59     84%     30.26 30.26      
Aug 25 06:53 N 5 10 Mostly Clear FEW055 59 56     90%     30.26 30.26      
Aug 25 05:53 N 3 10 Partly Cloudy FEW045 SCT055 56 54     93%     30.25 30.25      
Aug 25 04:53 Calm 10 Mostly Clear FEW050 56 53     90%     30.25 30.24      
Aug 25 03:53 NNW 5 10 Clear CLR 56 53     90%     30.25 30.24      
Aug 25 02:53 Calm 10 Clear CLR 56 53     90%     30.25 30.25      
Aug 25 01:53 NNW 3 10 Clear CLR 57 54     89%     30.26 30.25      
Aug 25 00:53 Calm 10 Clear CLR 57 54     89%     30.27 30.27      
Aug 24 23:53 Calm 10 Clear CLR 56 54     93%     30.27 30.27      
Aug 24 22:53 Calm 10 Clear CLR 58 55     90%     30.27 30.26      
Aug 24 21:53 Calm 10 Clear CLR 59 55     87%     30.26 30.25      
Aug 24 20:53 NNE 3 10 Clear CLR 62 56     80%     30.25 30.25      
Aug 24 20:27 NE 5 10 Partly Cloudy SCT025 62 56     80%     30.24        
Aug 24 20:09 NNE 3 10 Mostly Cloudy BKN024 63 56     78%     30.24        
Aug 24 19:53 NNE 3 10 Mostly Clear FEW024 63 55     75%     30.23 30.23      
Aug 24 18:53 NE 10 10 Clear CLR 66 54     65%     30.21 30.21      
Aug 24 17:53 NE 8 10 Mostly Clear FEW032 69 55     61%     30.2 30.19      
Aug 24 16:53 NE 13 10 Partly Cloudy SCT033 71 55     57%   71 30.18 30.18      
Aug 24 15:53 NNE 10 10 Mostly Clear FEW038 73 56     55%   73 30.16 30.16      
Aug 24 14:53 NE 10 10 Partly Cloudy SCT046 72 54     53%   71 30.16 30.16      
Aug 24 13:53 NNE 10 10 Partly Cloudy SCT044 74 55     52%   73 30.14 30.14      
Aug 24 12:53 NNE 10 10 Mostly Clear FEW050 74 54     50%   73 30.14 30.14      
Aug 24 11:53 NNE 7 10 Clear CLR 74 52     46%   73 30.14 30.14      
Aug 24 10:53 N 10 10 Clear CLR 72 52     49%   71 30.14 30.14      
Aug 24 09:53 N 9 10 Clear CLR 70 54     57%     30.14 30.13      
Aug 24 08:53 5 10 Clear CLR 66 53     63%     30.12 30.12      
Aug 24 07:53 5 10 Clear CLR 62 52     70%     30.11 30.11      
Aug 24 06:53 NNW 3 10 Clear CLR 56 50     80%     30.1 30.09      
Aug 24 05:53 N 3 10 Clear CLR 56 50     80%     30.08 30.08      
Aug 24 04:53 NNW 3 10 Clear CLR 56 50     80%     30.06 30.06      
Aug 24 03:53 NNW 5 10 Clear CLR 57 51     81%     30.05 30.05      
Aug 24 02:53 3 10 Clear CLR 57 51     81%     30.04 30.04      
Aug 24 01:53 Calm 10 Clear CLR 58 53     84%     30.04 30.04      
Aug 24 00:53 NNW 3 10 Clear CLR 61 55     81%     30.04 30.03      
Aug 23 23:53 Calm 10 Clear CLR 61 57     87%     30.02 30.02      
Aug 23 22:53 NNW 3 10 Clear CLR 63 59     87%     30 30      
Aug 23 21:53 Calm 10 Clear CLR 64 62     93%     29.98 29.98      
Aug 23 20:53 Calm 10 Clear CLR 66 63     90%     29.98 29.98      
Aug 23 19:53 Calm 10 Clear CLR 67 62     84%     29.97 29.96      
Aug 23 18:53 Calm 10 Clear CLR 70 62     76%     29.96 29.96      
Aug 23 17:53 Calm 10 Mostly Clear FEW045 73 62     68%   73 29.95 29.95      
Aug 23 16:53 WNW 3 10 Mostly Clear FEW040 74 61     64%   74 29.95 29.95      
Aug 23 15:53 NNW 5 10 Partly Cloudy SCT039 75 60     60%   75 29.94 29.94      
Aug 23 14:53 5 10 Clear CLR 75 60     60%   75 29.94 29.94      
Aug 23 13:53 NW 7 10 Clear CLR 73 60     64%   73 29.94 29.94     0
Aug 23 12:53 WNW 7 10 Clear CLR 72 62     71%   72 29.94 29.94      
Aug 23 11:53 SW 3 10 Mostly Cloudy FEW009 BKN090 67 62     84%     29.96 29.96 0    
Aug 23 11:02 Calm 10 Light Rain FEW008 BKN080 OVC100 66 62     87%     29.97   0    
Aug 23 10:53 WSW 3 10 Light Rain FEW050 BKN085 OVC110 65 62     90%     29.98 29.97 0 0  
Aug 23 09:53 Calm 10 Light Rain FEW050 BKN080 OVC110 64 60     87%     29.97 29.97 0    
Aug 23 08:53 WNW 3 7 Light Rain BKN039 OVC047 64 60     87%     29.98 29.98 0    
Aug 23 07:53 3 10 Cloudy BKN037 OVC080 68 57     68%     29.95 29.94     0
Aug 23 06:53 Calm 10 Cloudy FEW044 OVC080 69 59     70%     29.93 29.93      
Aug 23 05:53 Calm 10 Mostly Cloudy BKN075 BKN090 70 60     71%     29.91 29.91 0    
Aug 23 04:53 3 10 Cloudy FEW060 BKN090 OVC110 71 62     73%   71 29.9 29.89 0 0  
Aug 23 03:53 NW 5 10 Cloudy BKN090 OVC110 72 66     82%   73 29.89 29.88      
Aug 23 02:53 Calm 10 Mostly Cloudy BKN100 73 69     87%   74 29.87 29.86 0    
Aug 23 01:53 WNW 5 10 Light Rain FEW090 SCT110 73 70     90%   74 29.87 29.87 0   0
Aug 23 00:53 W 7 10 Partly Cloudy SCT045 76 70     82%   77 29.88 29.88      
Aug 22 23:53 SW 5 10 Mostly Cloudy SCT055 BKN065 75 70     84%   76 29.87 29.87      
Aug 22 22:53 SW 5 10 Cloudy OVC100 75        %     29.86 29.85 0 0  
May 14 05:53 Calm 10 Cloudy OVC007 51 50     96%     30.01 30.01      
May 13 15:53 SSE 8 10 Cloudy BKN020 OVC026 56 50     80%     30.13 30.12      
May 13 07:53 NNE 7 10 Cloudy BKN007 OVC024 51 51     100%     30.17 30.17 0   0
May 13 05:53 Calm 9 Cloudy SCT008 OVC012 50 50     100%     30.13 30.13      
May 13 03:53 NNE 3 10 Cloudy OVC006 51 51     100%     30.11 30.11      
May 12 06:53 ENE 7 10 Cloudy OVC085 50 45     83% 47   30.19 30.19      
Jun 11 17:53   10 Clear CLR 80 61     52%   81 29.94 29.93      
Jun 11 15:53 WSW 14 10 Clear   79 63     58%   79 29.96 29.96      
Jun 10 19:53 WSW 13 10 Clear CLR 70 53     55%     29.98 29.97      
Jun 10 16:53 SSW 14 10 Clear CLR 76 53     45%   75 29.95 29.95      
Jun 10 11:53 SSW 10 10 Clear CLR 82 56     41%   82 29.97 29.97      
Jun 10 08:53 WNW 6 10 Clear CLR 75 57     54%   75 29.97 29.97      
Jun 10 04:53 Calm 10 Clear CLR 53 52     96%     29.89 29.88      
Jun 08 07:53 SW 5 10 Clear CLR 57 52     83%     30.05 30.05      
Notice The following observation data may not be complete
Jun 08 05:53 Calm 10 Clear CLR   42      %     30.03 30.03      
Jun 07 15:53 NE 10 10 Clear CLR 66 47     50%     29.94 29.94      
Jun 06 07:53 NNE 13 3 Fog/Mist OVC006 51 50     96%     29.73 29.73     0